Location: The D'Auria's Ocala Star Observatory
(29.0276°N, 82.1742°W)
Time: 01:32:01
(UTC-05:00)

Daily predictions for brighter satellites

Satellite Brightness Start Highest point End
(mag) Time Altitude Azimuth Time Altitude Azimuth Time Altitude Azimuth
Atlas Centaur 2 3.0 04:16:10 75° ENE 04:16:10 75° ENE 04:23:59 10° E
Lacrosse 5 rocket 4.4 04:23:56 11° NE 04:23:56 11° NE 04:24:11 10° NE
SL-16 R/B 4.1 04:29:35 20° NNE 04:29:35 20° NNE 04:31:11 10° NNE
Cosmos 2123 Rocket 4.4 04:22:47 10° S 04:28:52 61° E 04:35:01 10° NNE
Skynet4D Del rocket 4.5 04:34:13 67° SW 04:35:19 75° S 04:43:42 10° E
IUS-1 SRM-2 3.8 04:37:06 41° ESE 04:37:06 41° ESE 04:43:11 10° E
ISS -0.9 04:45:58 16° ESE 04:45:58 16° ESE 04:46:46 10° ESE
Cosmos 2061 Rocket 3.9 04:48:04 70° NW 04:48:40 76° W 04:55:03 10° S
CZ-4B R/B 3.1 04:49:00 10° N 04:54:40 76° WNW 05:00:16 10° SSW
Cosmos 2297 4.2 04:54:23 26° N 04:57:35 58° ENE 05:03:10 10° SSE
Cosmos 2016 Rocket 3.8 04:56:33 38° NNW 04:59:03 77° W 05:05:08 10° S
SL-8 R/B 4.0 05:01:31 53° N 05:01:31 53° N 05:05:23 10° NE
Cosmos 2278 Rocket 2.9 05:05:28 35° SW 05:05:28 35° SW 05:09:14 10° S
IRS-1C Rocket 3.9 05:00:08 10° N 05:05:21 69° WNW 05:10:33 10° SSW
Cosmos 2242 Rocket 3.4 05:05:16 82° N 05:05:27 88° E 05:09:50 10° S
IDEFIX/ARIANE 42P 4.4 05:06:28 10° NE 05:11:03 32° E 05:15:38 10° SSE
Cosmos 1862 Rocket 3.5 05:12:48 28° N 05:15:08 86° E 05:19:34 10° S
Meteor 1-28 Rocket 3.9 05:11:42 10° SSE 05:15:22 53° ENE 05:17:47 20° N
Cosmos 1486 Rocket 4.0 05:16:17 48° WNW 05:17:15 56° WSW 05:22:26 10° S
Delta 2 Rocket 4.0 05:24:55 36° NNW 05:25:40 40° NNE 05:29:50 10° E
Landsat 4 4.0 05:22:12 10° SSE 05:25:51 64° ENE 05:28:54 14° N
Cosmos 1864 Rocket 4.4 05:21:38 10° NNW 05:27:48 63° W 05:33:51 10° S
USA 215 3.9 05:25:11 10° NE 05:31:34 55° SE 05:37:55 10° SSW
Cosmos 1354 Rocket 3.9 05:28:31 13° NNW 05:33:08 85° WSW 05:38:22 10° SSE
USA 32 3.9 05:28:37 10° SSW 05:33:46 65° W 05:38:58 10° N
Cosmos 1943 3.9 05:29:08 10° S 05:34:40 56° ESE 05:40:13 10° NNE
Hubble Space Telescope 0.7 05:35:52 39° W 05:37:19 85° S 05:41:28 10° E
SKYMED 2 4.2 05:36:32 10° SSE 05:40:45 56° ENE 05:45:01 10° N
ATLAS 5 CENTAUR R/B 1.7 05:39:53 10° SSW 05:44:20 81° ESE 05:49:05 10° NNE
ASTRO E2 4.2 05:45:28 20° WSW 05:46:52 24° SSW 05:50:07 10° SSE
Cosmos 1825 2.0 05:43:50 10° SSW 05:47:34 68° W 05:51:19 10° N
Cosmos 2233 Rocket 3.9 05:41:50 10° N 05:47:56 71° W 05:54:01 10° S
Meteor 2-3 Rocket 4.5 05:51:35 10° SW 05:56:32 29° WNW 06:01:29 10° NNW
Lacrosse 5 rocket 3.6 05:59:41 11° NW 05:59:41 11° NW 06:00:55 10° NNW
Cosmos 2221 Rocket 4.2 05:57:54 10° N 06:02:20 62° E 06:06:47 10° SSE
Intercosmos 25 3.6 05:59:22 10° N 06:03:01 88° ENE 06:08:28 10° S
Genesis I 3.7 05:59:22 10° SSW 06:03:09 63° ESE 06:07:01 10° NE
Okean-O 3.1 06:00:20 10° N 06:04:26 38° WNW 06:08:31 10° SW
Atlas Centaur 2 3.2 05:58:47 16° W 06:05:31 71° SSW 06:14:03 10° ESE
Meteor 1-10 Rocket 4.5 06:00:40 10° N 06:06:38 82° E 06:12:32 10° S
SJ-12 4.4 06:04:16 10° NNE 06:08:22 67° ESE 06:12:23 10° S
Orbus 21S 3.7 06:06:04 11° W 06:09:23 21° SSW 06:11:18 10° SSE
Cosmos 1869 Rocket 3.9 06:08:35 10° SSW 06:12:41 41° W 06:16:51 10° N
Cosmos 1703 Rocket 3.7 06:10:07 10° NNW 06:14:21 52° W 06:18:32 10° S
Cosmos 1603 4.5 06:09:52 10° SW 06:14:41 29° WNW 06:19:34 10° N
Cosmos 1441 Rocket 4.0 06:12:13 10° N 06:15:54 53° E 06:19:32 10° SSE
Cosmos 1606 2.9 06:13:12 10° NNW 06:16:54 50° W 06:20:36 10° S
COSMOS 2441 4.4 06:16:11 10° N 06:21:06 85° WNW 06:25:57 10° SSW
NOSS 3-1 (C) 4.3 06:17:07 10° NNW 06:25:08 86° ENE 06:33:47 10° SSE
Delta 198 4.4 06:21:53 10° WSW 06:25:26 35° S 06:29:25 10° ESE
SMAP 4.2 06:22:39 10° NNE 06:27:11 51° E 06:31:41 10° S
COSMO-SKYMED 1 3.3 06:24:55 10° SSW 06:28:50 34° W 06:32:47 10° NNW
Cosmos 1782 3.4 06:25:19 10° NNW 06:28:57 36° W 06:32:34 10° SSW
Cosmos 1408 4.3 06:29:16 10° WSW 06:31:18 14° WNW 06:33:20 10° NW
CZ-2C R/B 2.8 06:29:12 10° N 06:34:03 43° WNW 06:38:47 10° SW
